Hourly Weather Gogolin

Today, 3 December, Thursday

Time Temperature Precipitation Wind Pressure Humidity
00:00 -5°C° 0 mm 4 mps 753 mmHg 75%
01:00 -5°C° 0 mm 4 mps 752 mmHg 77%
02:00 -7°C° 0 mm 4 mps 752 mmHg 79%
03:00 -7°C° 0 mm 4 mps 751 mmHg 81%
04:00 -7°C° 0 mm 4 mps 750 mmHg 83%
05:00 -7°C° 0 mm 4 mps 750 mmHg 83%
06:00 -7°C° 0 mm 4 mps 749 mmHg 83%
07:00 -7°C° 0 mm 4 mps 749 mmHg 83%
08:00 -6°C° 0 mm 5 mps 749 mmHg 80%
09:00 -6°C° 0 mm 5 mps 748 mmHg 77%
10:00 -5°C° 0 mm 5 mps 748 mmHg 73%
11:00 -5°C° 0.1 mm 5 mps 748 mmHg 77%
12:00 -5°C° 0.1 mm 5 mps 747 mmHg 82%
13:00 -5°C° 0.1 mm 5 mps 746 mmHg 86%
14:00 -5°C° 0.8 mm 5 mps 746 mmHg 88%
15:00 -5°C° 0.8 mm 5 mps 745 mmHg 91%
16:00 -5°C° 0.8 mm 5 mps 745 mmHg 93%
17:00 -5°C° 0.2 mm 5 mps 745 mmHg 88%
18:00 -4°C° 0.2 mm 4 mps 744 mmHg 83%
19:00 -3°C° 0.2 mm 4 mps 744 mmHg 78%
20:00 -4°C° 0 mm 4 mps 744 mmHg 78%
21:00 -4°C° 0 mm 4 mps 744 mmHg 78%
22:00 -4°C° 0 mm 4 mps 743 mmHg 78%
23:00 -4°C° 0 mm 4 mps 743 mmHg 79%

Tomorrow, 4 December, Friday

Time Temperature Precipitation Wind Pressure Humidity
00:00 -3°C° 0 mm 4 mps 743 mmHg 80%
01:00 -3°C° 0 mm 4 mps 743 mmHg 81%
02:00 -3°C° 0.2 mm 4 mps 742 mmHg 83%
03:00 -2°C° 0.2 mm 4 mps 741 mmHg 85%
04:00 -2°C° 0.2 mm 5 mps 741 mmHg 87%
05:00 -2°C° 0.2 mm 5 mps 741 mmHg 88%
06:00 -2°C° 0.2 mm 5 mps 741 mmHg 88%
07:00 -1°C° 0.2 mm 5 mps 740 mmHg 89%
08:00 -1°C° 0.1 mm 5 mps 740 mmHg 88%
09:00 -1°C° 0.1 mm 5 mps 740 mmHg 87%
10:00 0°C° 0.1 mm 5 mps 740 mmHg 85%
11:00 0°C° 0.2 mm 5 mps 739 mmHg 86%
12:00 0°C° 0.2 mm 5 mps 739 mmHg 87%
13:00 +1°C° 0.2 mm 5 mps 739 mmHg 87%
14:00 +1°C° 0 mm 5 mps 739 mmHg 85%
15:00 +1°C° 0 mm 4 mps 739 mmHg 84%
16:00 +1°C° 0 mm 4 mps 739 mmHg 82%
17:00 +1°C° 0 mm 5 mps 739 mmHg 82%
18:00 +1°C° 0 mm 5 mps 739 mmHg 83%
19:00 +1°C° 0 mm 5 mps 739 mmHg 83%
20:00 +1°C° 0 mm 5 mps 739 mmHg 83%
21:00 +1°C° 0 mm 5 mps 739 mmHg 83%
22:00 +1°C° 0 mm 5 mps 739 mmHg 83%
23:00 +1°C° 0 mm 5 mps 740 mmHg 83%

Day after tomorrow, 5 December, Saturday

Time Temperature Precipitation Wind Pressure Humidity
00:00 +1°C° 0 mm 5 mps 740 mmHg 84%
01:00 +1°C° 0 mm 6 mps 740 mmHg 85%
02:00 +1°C° 0 mm 6 mps 740 mmHg 85%
03:00 +1°C° 0 mm 6 mps 740 mmHg 85%
04:00 +1°C° 0 mm 6 mps 740 mmHg 85%
05:00 +1°C° 0 mm 6 mps 740 mmHg 85%
06:00 +1°C° 0 mm 6 mps 741 mmHg 85%
07:00 +2°C° 0 mm 6 mps 741 mmHg 85%
08:00 +2°C° 0 mm 6 mps 741 mmHg 83%
09:00 +3°C° 0 mm 6 mps 741 mmHg 81%
10:00 +4°C° 0 mm 6 mps 741 mmHg 80%
11:00 +4°C° 0 mm 6 mps 742 mmHg 78%
12:00 +5°C° 0 mm 6 mps 742 mmHg 77%
13:00 +7°C° 0 mm 5 mps 742 mmHg 75%
14:00 +6°C° 0 mm 5 mps 742 mmHg 77%
15:00 +5°C° 0 mm 6 mps 743 mmHg 78%
16:00 +5°C° 0 mm 6 mps 743 mmHg 79%
17:00 +5°C° 0 mm 6 mps 743 mmHg 79%
18:00 +5°C° 0 mm 6 mps 743 mmHg 80%
19:00 +5°C° 0 mm 7 mps 744 mmHg 80%
20:00 +4°C° 0 mm 7 mps 744 mmHg 80%
21:00 +4°C° 0 mm 6 mps 744 mmHg 81%
22:00 +4°C° 0 mm 6 mps 744 mmHg 82%
23:00 +4°C° 0 mm 7 mps 744 mmHg 81%

6 December, Sunday

Time Temperature Precipitation Wind Pressure Humidity
00:00 +4°C° 0 mm 7 mps 744 mmHg 81%
01:00 +4°C° 0 mm 7 mps 744 mmHg 81%
02:00 +4°C° 0 mm 7 mps 744 mmHg 81%
03:00 +5°C° 0 mm 7 mps 744 mmHg 80%
04:00 +5°C° 0 mm 7 mps 744 mmHg 80%
05:00 +5°C° 0 mm 7 mps 744 mmHg 81%
06:00 +5°C° 0 mm 7 mps 744 mmHg 82%
07:00 +4°C° 0 mm 7 mps 744 mmHg 82%
08:00 +5°C° 0 mm 7 mps 745 mmHg 81%
09:00 +5°C° 0 mm 7 mps 745 mmHg 80%
10:00 +5°C° 0 mm 8 mps 745 mmHg 79%
11:00 +6°C° 0 mm 8 mps 745 mmHg 77%
12:00 +6°C° 0 mm 8 mps 745 mmHg 74%
13:00 +7°C° 0 mm 8 mps 745 mmHg 72%
14:00 +6°C° 0 mm 8 mps 745 mmHg 76%
15:00 +5°C° 0 mm 8 mps 745 mmHg 79%
16:00 +4°C° 0 mm 7 mps 745 mmHg 83%
17:00 +4°C° 0 mm 8 mps 745 mmHg 83%
18:00 +2°C° 0 mm 8 mps 746 mmHg 83%
19:00 +2°C° 0 mm 8 mps 746 mmHg 82%
20:00 +1°C° 0 mm 8 mps 745 mmHg 82%
21:00 +1°C° 0 mm 8 mps 745 mmHg 82%
22:00 +2°C° 0 mm 7 mps 745 mmHg 81%
23:00 +1°C° 0 mm 8 mps 745 mmHg 81%

7 December, Monday

Time Temperature Precipitation Wind Pressure Humidity
00:00 +1°C° 0 mm 8 mps 745 mmHg 81%
01:00 0°C° 0 mm 8 mps 745 mmHg 82%
02:00 0°C° 0 mm 8 mps 745 mmHg 81%
03:00 0°C° 0 mm 7 mps 744 mmHg 81%
04:00 0°C° 0 mm 7 mps 744 mmHg 81%
05:00 0°C° 0 mm 7 mps 744 mmHg 81%
06:00 0°C° 0 mm 8 mps 744 mmHg 81%
07:00 0°C° 0 mm 8 mps 744 mmHg 81%
08:00 0°C° 0 mm 7 mps 744 mmHg 80%
09:00 +2°C° 0 mm 7 mps 744 mmHg 80%
10:00 +2°C° 0 mm 7 mps 744 mmHg 79%
11:00 +3°C° 0 mm 7 mps 744 mmHg 79%
12:00 +4°C° 0 mm 7 mps 744 mmHg 79%
13:00 +4°C° 0 mm 7 mps 744 mmHg 79%
14:00 +4°C° 0 mm 6 mps 744 mmHg 80%
15:00 +4°C° 0 mm 6 mps 745 mmHg 82%
16:00 +4°C° 0 mm 6 mps 745 mmHg 83%
17:00 +5°C° 0 mm 5 mps 746 mmHg 82%
18:00 +4°C° 0 mm 4 mps 747 mmHg 81%
19:00 +4°C° 0 mm 3 mps 747 mmHg 79%
20:00 +3°C° 0 mm 3 mps 748 mmHg 82%
21:00 +4°C° 0 mm 2 mps 748 mmHg 85%
22:00 +4°C° 0 mm 1 mps 749 mmHg 88%
23:00 +4°C° 0 mm 1 mps 749 mmHg 89%

8 December, Tuesday

Time Temperature Precipitation Wind Pressure Humidity
00:00 +3°C° 0 mm 1 mps 750 mmHg 89%
01:00 +3°C° 0 mm 1 mps 750 mmHg 89%
02:00 +3°C° 0 mm 1 mps 750 mmHg 89%
03:00 +3°C° 0 mm 1 mps 750 mmHg 89%
04:00 +3°C° 0 mm 1 mps 750 mmHg 89%
05:00 +1°C° 0 mm 2 mps 750 mmHg 91%
06:00 +1°C° 0 mm 2 mps 750 mmHg 93%
07:00 0°C° 0 mm 3 mps 750 mmHg 95%
08:00 +1°C° 0 mm 3 mps 750 mmHg 95%
09:00 +1°C° 0 mm 3 mps 750 mmHg 95%
10:00 +2°C° 0 mm 3 mps 750 mmHg 95%
11:00 +2°C° 0 mm 3 mps 750 mmHg 93%
12:00 +1°C° 0 mm 4 mps 750 mmHg 91%
13:00 +3°C° 0 mm 4 mps 750 mmHg 89%
14:00 +1°C° 0 mm 4 mps 750 mmHg 88%
15:00 +1°C° 0 mm 4 mps 750 mmHg 88%
16:00 +1°C° 0 mm 4 mps 750 mmHg 88%
17:00 +1°C° 0 mm 4 mps 749 mmHg 87%
18:00 0°C° 0 mm 4 mps 749 mmHg 86%
19:00 0°C° 0 mm 4 mps 749 mmHg 85%
20:00 0°C° 0 mm 4 mps 749 mmHg 86%
21:00 -1°C° 0 mm 4 mps 749 mmHg 87%
22:00 -1°C° 0 mm 4 mps 749 mmHg 88%
23:00 -1°C° 0 mm 4 mps 749 mmHg 89%
Show more

We Need Your Consent

Meteoprog and our Service Providers may store and access personal data such as cookies, device identifiers or other similar technologies on your device and process such data to personalise content and ads, as well as provide social media features and to analyse the traffic.

  • Store and/or access information on your device

    Cookies, device identifiers or other information can be stored or accessed on your device for the purposes indicated above.

  • Personalised ads and content, ad and content measurement, audience insights, and products development

    Ads and content can be personalised based on a profile. More data can be added to better personalise ads and content. Ad and content performance can be measured. Insights about the audience who saw the ads and content can be derived. Such data can be used to develop or improve user’s experience, systems and software.

By clicking ‘I Agree’ you will allow the use of indicated cookies, device identifiers, web beacons or other similar technologies. Your settings can be changed in the browser on your device.

For certain purposes, legitimate interests may be relied on, rather than consent. You can read more about this in our Privacy and Cookie Policy.